Flag for Germany Weather past 2 weeks in Neustrelitz, Mecklenburg-Western Pomerania, Germany

Now
71 °F

Sunny.


Feels Like: 76 °F
Forecast: 58 / 84 °F
Wind: 2 mph from Southwest

Location: Neuruppin

Current Time: Aug 2, 2015 at 10:25:58 AM

Latest Report: Aug 2, 2015 at 10:00 AM


Visibility: 6 mi

Pressure: 30.09 "Hg

Humidity: 57%

Dew point: 55 °F

Location of NeustrelitzLocation

Historic Weather in Neustrelitz — Graph

°F

Neustrelitz temperature yesterday

Maximum temperature yesterday: 73 °F (at 6:00 PM)
Minimum temperature yesterday: 46 °F (at 4:00 AM)
Average temperature yesterday: 61 °F

Past Weeks' High & Low Weather Summary

 TemperatureHumidityPressure
High80 °F (Jul 25, 3:00 PM)97% (Jul 20, 12:00 AM)30.12 "Hg (Jul 20, 12:00 AM)
Low46 °F (Aug 1, 4:00 AM)35% (Jul 25, 4:00 PM)29.50 "Hg (Jul 25, 3:00 PM)
Average64 °F71%29.84 "Hg
* Reported Jul 18 9:00 AM — Aug 2 9:00 AM, Neustrelitz, Weather by CustomWeather, © 2015

Note: Actual official high and low records may vary slightly from our data, if they occured in-between our weather recording intervals... More about our weather records

Advertising

Neustrelitz weather history for previous 24 hours

 ConditionsComfort  
Time TempWeatherWind HumidityBarometerVisibility
9:00 AM
Sun, Aug 2
65 °FSunny.No wind70%30.09 "Hg6 mi
8:00 AM59 °FSunny.No wind78%30.07 "Hg6 mi
7:00 AM55 °FSunny.No wind88%30.06 "Hg6 mi
6:00 AM54 °FSunny.1 mph89%30.06 "Hg6 mi
4:00 AM56 °FClear.1 mph83%30.05 "Hg6 mi
1:00 AM61 °FClear.2 mph69%30.04 "Hg6 mi
11:00 PM
Sat, Aug 1
64 °FPassing clouds.3 mph63%30.04 "Hg6 mi
10:00 PM64 °FPassing clouds.2 mph66%30.03 "Hg6 mi
9:00 PM68 °FSunny.2 mph56%30.01 "Hg2 mi
8:00 PM71 °FOvercast.1 mph50%30.00 "Hg6 mi
7:00 PM73 °FPartly sunny.2 mph43%30.00 "Hg6 mi
6:00 PM73 °FSunny.2 mph44%30.01 "Hg6 mi
5:00 PM73 °FSunny.2 mph47%30.01 "Hg6 mi
4:00 PM73 °FSunny.1 mph45%30.02 "Hg6 mi
3:00 PM71 °FSunny.3 mph47%30.04 "Hg6 mi
2:00 PM70 °FSunny.1 mph47%30.06 "Hg6 mi
1:00 PM69 °FSunny.2 mph49%30.07 "Hg6 mi
12:00 PM66 °FSunny.2 mph49%30.08 "Hg6 mi
11:00 AM65 °FSunny.2 mph54%30.09 "Hg6 mi
10:00 AM62 °FSunny.2 mph64%30.09 "Hg6 mi
Weather by CustomWeather, © 2015

See weather overviewHow to use our weather pages